Simultaneous Nadir Overpasses (SNOs) Predictions

Prediction of SNOs between GOES-16 and LANDSAT-8 Satellite Orbit:

Table of predicted SNOs for the next 14.0 days since TLE Epoch: 5/25/2024
Index Date Time (GOES-16) GOES-16 Lat,Lon LANDSAT-8 Lat,Lon Distance(km) Time Diff (sec)
1 05/27/2024 02:56:28 -0.05, -75.21 0.72, -71.72 396.80 80
2 05/27/2024 15:17:43 0.05, -75.22 0.41, -76.87 188.49 80
3 05/29/2024 15:08:11 0.04, -75.23 -0.21, -73.92 148.44 80
4 05/30/2024 03:29:35 -0.04, -75.22 -0.89, -79.11 442.72 80
5 05/31/2024 14:55:59 0.04, -75.25 -0.86, -70.97 486.34 80
6 06/01/2024 03:17:23 -0.04, -75.24 -0.24, -76.16 104.55 80
7 06/03/2024 03:02:30 -0.03, -75.27 0.38, -73.20 234.40 80
8 06/03/2024 15:23:46 0.03, -75.28 0.67, -78.37 350.36 80
9 06/05/2024 15:11:33 0.03, -75.31 0.02, -75.41 11.33 80
10 06/07/2024 15:01:59 0.02, -75.34 -0.59, -72.45 328.98 80
